Flag for Poland Weather past 2 weeks in Poznan, Poland

Now
34 °F

Partly sunny.


Feels Like: 26 °F
Forecast: 31 / 36 °F
Wind: 10 mph from West

Location: Poznan Airport

Current Time: Jan 28, 2015 at 10:41:13 AM

Latest Report: Jan 28, 2015 at 10:00 AM


Visibility: N/A

Pressure: 29.92 "Hg

Humidity: 87%

Dew point: 30 °F

Location of PoznanLocation

Historic Weather in Poznan — Graph

°F

Poznan temperature yesterday

Maximum temperature yesterday: 39 °F (at 2:30 PM)
Minimum temperature yesterday: 32 °F (at 12:30 AM)
Average temperature yesterday: 35 °F

Past Weeks' High & Low Weather Summary

 TemperatureHumidityPressure
High52 °F (Jan 13, 1:00 PM)93% (Jan 15, 1:00 AM)30.27 "Hg (Jan 15, 1:00 AM)
Low25 °F (Jan 22, 12:30 AM)47% (Jan 13, 9:30 PM)29.65 "Hg (Jan 17, 5:30 AM)
Average36 °F83%29.97 "Hg
* Reported Jan 13 9:00 AM — Jan 28 9:30 AM, Poznan, Weather by CustomWeather, © 2014

Note: Actual official high and low records may vary slightly from our data, if they occured in-between our weather recording intervals... More about our weather records

Advertising

Poznan weather history for previous 24 hours

 ConditionsComfort  
Time TempWeatherWind HumidityBarometerVisibility
9:30 AM
Jan 28
34 °FPartly sunny.12 mph87%29.92 "HgN/A
9:00 AM34 °FPartly sunny.9 mph87%29.92 "HgN/A
8:30 AM34 °FPartly sunny.9 mph87%29.92 "HgN/A
8:00 AM34 °FPartly sunny.12 mph87%29.92 "HgN/A
7:30 AM34 °FPassing clouds.12 mph87%29.92 "HgN/A
7:00 AM34 °FPassing clouds.10 mph93%29.92 "HgN/A
6:30 AM34 °FPassing clouds.8 mph93%29.92 "Hg5 mi
6:00 AM34 °FDrizzle. Low clouds.6 mph87%29.92 "Hg5 mi
5:30 AM34 °FDrizzle. Low clouds.8 mph87%29.92 "HgN/A
5:00 AM34 °FPassing clouds.8 mph93%29.92 "HgN/A
4:30 AM34 °FPassing clouds.10 mph93%29.92 "HgN/A
4:00 AM34 °FPassing clouds.8 mph93%29.92 "HgN/A
3:30 AM34 °FPassing clouds.9 mph93%29.92 "HgN/A
3:00 AM34 °FDrizzle. Low clouds.9 mph93%29.95 "HgN/A
2:30 AM34 °FDrizzle. Mostly cloudy.9 mph93%29.95 "HgN/A
2:00 AM34 °FMostly cloudy.8 mph93%29.95 "HgN/A
1:30 AM36 °FPassing clouds.10 mph87%29.95 "HgN/A
1:00 AM36 °FPassing clouds.10 mph87%29.92 "HgN/A
12:30 AM36 °FPassing clouds.10 mph87%29.92 "HgN/A
12:00 AM36 °FPartly cloudy.12 mph87%29.92 "HgN/A
11:30 PM
Jan 27
36 °FPartly cloudy.10 mph87%29.92 "HgN/A
11:00 PM36 °FPartly cloudy.13 mph93%29.92 "HgN/A
10:30 PM36 °FPartly cloudy.12 mph93%29.92 "HgN/A
10:00 PM36 °FPassing clouds.12 mph93%29.92 "HgN/A
9:30 PM37 °FDrizzle. Mostly cloudy.12 mph87%29.92 "HgN/A
9:00 PM37 °FDrizzle. Low clouds.10 mph87%29.92 "HgN/A
8:30 PM37 °FDrizzle. Low clouds.10 mph87%29.92 "Hg5 mi
8:00 PM37 °FDrizzle. Low clouds.10 mph87%29.92 "Hg5 mi
7:30 PM37 °FDrizzle. Low clouds.12 mph87%29.89 "HgN/A
7:00 PM37 °FDrizzle. Low clouds.10 mph87%29.89 "HgN/A
6:30 PM37 °FPassing clouds.9 mph87%29.89 "HgN/A
6:00 PM36 °FLight rain. Passing clouds.9 mph93%29.89 "HgN/A
5:30 PM36 °FPassing clouds.8 mph93%29.89 "HgN/A
5:00 PM37 °FLight rain. Passing clouds.8 mph87%29.86 "HgN/A
4:30 PM37 °FLight rain. Passing clouds.9 mph87%29.86 "HgN/A
4:00 PM37 °FLight rain. Partly sunny.8 mph87%29.86 "HgN/A
3:30 PM37 °FLight rain. Partly sunny.9 mph87%29.83 "HgN/A
3:00 PM37 °FBroken clouds.9 mph87%29.83 "HgN/A
2:30 PM39 °FPartly sunny.12 mph81%29.83 "HgN/A
2:00 PM37 °FPartly sunny.12 mph93%29.83 "HgN/A
1:30 PM37 °FBroken clouds.12 mph93%29.83 "HgN/A
1:00 PM37 °FPartly sunny.10 mph87%29.80 "HgN/A
12:30 PM37 °FBroken clouds.12 mph87%29.80 "HgN/A
12:00 PM37 °FPartly sunny.13 mph87%29.80 "HgN/A
11:30 AM36 °FPartly sunny.12 mph93%29.80 "HgN/A
11:00 AM36 °FPartly sunny.10 mph87%29.80 "HgN/A
10:30 AM36 °FLight rain. Partly sunny.12 mph87%29.80 "Hg5 mi
10:00 AM34 °FLight rain. Fog.14 mph93%29.77 "Hg3 mi
Weather by CustomWeather, © 2014

See weather overviewHow to use our weather pages